{"data":{"norad_id":52707,"epoch":"2026-05-25T03:42:43.965792Z","epoch_age_seconds":61428,"freshness":"FRESH","line1":"1 52707U 22053BD  26145.15467553  .00015864  00000+0  98559-3 0  9999","line2":"2 52707  53.2145 150.6084 0002308  47.7995 312.3193 15.09830004222920","mean_motion":15.09830004,"eccentricity":0.0002308,"inclination_deg":53.2145,"raan_deg":150.6084,"arg_perigee_deg":47.7995,"mean_anomaly_deg":312.3193,"bstar":0.00098559,"rev_number":22292,"period_min":95.374975737997,"perigee_km":535.123047646,"apogee_km":538.31494517394,"semimajor_km":6914.85599641,"source":"CELESTRAK","updated_at":"2026-05-25T13:38:17.239666Z"}}